• In Uzbekistan
  • List of Countries
  • For 7 days
  • Water Temperature
  • Weather Map
  • Weather Widgets
  • user-avatar
    Login

    Hourly Weather Nuwejba

    Today, 3 April, Friday

    Time Temperature Precipitation Wind Pressure Humidity
    00:00 +14°C° 0 mm 3 mps 691 mmHg 61%
    01:00 +15°C° 0 mm 2 mps 691 mmHg 63%
    02:00 +15°C° 0 mm 2 mps 691 mmHg 66%
    03:00 +14°C° 0 mm 2 mps 691 mmHg 67%
    04:00 +14°C° 0 mm 2 mps 691 mmHg 68%
    05:00 +13°C° 0 mm 1 mps 691 mmHg 69%
    06:00 +14°C° 0 mm 2 mps 692 mmHg 60%
    07:00 +15°C° 0 mm 2 mps 692 mmHg 52%
    08:00 +17°C° 0 mm 2 mps 692 mmHg 43%
    09:00 +18°C° 0 mm 3 mps 692 mmHg 38%
    10:00 +20°C° 0 mm 3 mps 693 mmHg 32%
    11:00 +21°C° 0 mm 3 mps 693 mmHg 26%
    12:00 +22°C° 0 mm 3 mps 693 mmHg 22%
    13:00 +24°C° 0 mm 3 mps 692 mmHg 19%
    14:00 +25°C° 0 mm 3 mps 692 mmHg 16%
    15:00 +25°C° 0 mm 3 mps 692 mmHg 16%
    16:00 +25°C° 0 mm 4 mps 692 mmHg 16%
    17:00 +25°C° 0 mm 5 mps 692 mmHg 16%
    18:00 +23°C° 0 mm 4 mps 692 mmHg 20%
    19:00 +21°C° 0 mm 4 mps 692 mmHg 24%
    20:00 +20°C° 0 mm 3 mps 692 mmHg 28%
    21:00 +19°C° 0 mm 3 mps 692 mmHg 30%
    22:00 +19°C° 0 mm 2 mps 692 mmHg 33%
    23:00 +18°C° 0 mm 2 mps 692 mmHg 35%

    Tomorrow, 4 April, Saturday

    Time Temperature Precipitation Wind Pressure Humidity
    00:00 +18°C° 0 mm 2 mps 692 mmHg 36%
    01:00 +18°C° 0 mm 1 mps 692 mmHg 38%
    02:00 +16°C° 0 mm 1 mps 691 mmHg 39%
    03:00 +16°C° 0 mm 1 mps 691 mmHg 40%
    04:00 +16°C° 0 mm 1 mps 692 mmHg 40%
    05:00 +15°C° 0 mm 1 mps 692 mmHg 41%
    06:00 +18°C° 0 mm 1 mps 692 mmHg 37%
    07:00 +19°C° 0 mm 1 mps 692 mmHg 33%
    08:00 +20°C° 0 mm 2 mps 692 mmHg 30%
    09:00 +21°C° 0 mm 2 mps 693 mmHg 26%
    10:00 +24°C° 0 mm 2 mps 693 mmHg 22%
    11:00 +26°C° 0 mm 2 mps 693 mmHg 18%
    12:00 +27°C° 0 mm 3 mps 693 mmHg 16%
    13:00 +29°C° 0 mm 4 mps 692 mmHg 14%
    14:00 +30°C° 0 mm 4 mps 692 mmHg 12%
    15:00 +30°C° 0 mm 4 mps 692 mmHg 12%
    16:00 +29°C° 0 mm 4 mps 691 mmHg 11%
    17:00 +29°C° 0 mm 4 mps 691 mmHg 11%
    18:00 +28°C° 0 mm 3 mps 691 mmHg 12%
    19:00 +26°C° 0 mm 2 mps 691 mmHg 14%
    20:00 +25°C° 0 mm 1 mps 691 mmHg 16%
    21:00 +24°C° 0 mm 1 mps 691 mmHg 16%
    22:00 +23°C° 0 mm 1 mps 691 mmHg 16%
    23:00 +23°C° 0 mm 1 mps 691 mmHg 16%

    Day after tomorrow, 5 April, Sunday

    Time Temperature Precipitation Wind Pressure Humidity
    00:00 +22°C° 0 mm 1 mps 690 mmHg 16%
    01:00 +22°C° 0 mm 1 mps 690 mmHg 16%
    02:00 +21°C° 0 mm 1 mps 689 mmHg 15%
    03:00 +21°C° 0 mm 1 mps 689 mmHg 15%
    04:00 +20°C° 0 mm 2 mps 689 mmHg 15%
    05:00 +20°C° 0 mm 2 mps 689 mmHg 14%
    06:00 +24°C° 0 mm 3 mps 689 mmHg 13%
    07:00 +26°C° 0 mm 4 mps 690 mmHg 11%
    08:00 +28°C° 0 mm 4 mps 690 mmHg 10%
    09:00 +30°C° 0 mm 6 mps 691 mmHg 8%
    10:00 +33°C° 0 mm 7 mps 691 mmHg 7%
    11:00 +34°C° 0 mm 8 mps 692 mmHg 5%
    12:00 +35°C° 0 mm 8 mps 691 mmHg 6%
    13:00 +35°C° 0 mm 8 mps 691 mmHg 6%
    14:00 +35°C° 0 mm 8 mps 691 mmHg 6%
    15:00 +35°C° 0 mm 7 mps 691 mmHg 6%
    16:00 +34°C° 0 mm 6 mps 691 mmHg 7%
    17:00 +33°C° 0 mm 4 mps 690 mmHg 7%
    18:00 +30°C° 0 mm 3 mps 691 mmHg 12%
    19:00 +27°C° 0 mm 3 mps 691 mmHg 16%
    20:00 +25°C° 0 mm 2 mps 691 mmHg 20%
    21:00 +24°C° 0 mm 2 mps 691 mmHg 27%
    22:00 +23°C° 0 mm 2 mps 691 mmHg 34%
    23:00 +21°C° 0 mm 2 mps 691 mmHg 41%

    6 April, Monday

    Time Temperature Precipitation Wind Pressure Humidity
    00:00 +20°C° 0 mm 2 mps 690 mmHg 44%
    01:00 +19°C° 0 mm 2 mps 690 mmHg 48%
    02:00 +18°C° 0 mm 2 mps 690 mmHg 52%
    03:00 +18°C° 0 mm 2 mps 690 mmHg 56%
    04:00 +17°C° 0 mm 2 mps 690 mmHg 61%
    05:00 +16°C° 0 mm 3 mps 690 mmHg 66%
    06:00 +17°C° 0 mm 3 mps 690 mmHg 63%
    07:00 +18°C° 0 mm 3 mps 690 mmHg 59%
    08:00 +18°C° 0 mm 3 mps 691 mmHg 56%
    09:00 +20°C° 0 mm 3 mps 691 mmHg 49%
    10:00 +22°C° 0 mm 3 mps 691 mmHg 41%
    11:00 +25°C° 0 mm 3 mps 691 mmHg 34%
    12:00 +26°C° 0 mm 3 mps 691 mmHg 31%
    13:00 +27°C° 0 mm 3 mps 691 mmHg 27%
    14:00 +28°C° 0 mm 3 mps 691 mmHg 24%
    15:00 +28°C° 0 mm 3 mps 691 mmHg 25%
    16:00 +27°C° 0 mm 4 mps 691 mmHg 25%
    17:00 +27°C° 0 mm 4 mps 691 mmHg 26%
    18:00 +25°C° 0 mm 5 mps 691 mmHg 30%
    19:00 +23°C° 0 mm 5 mps 691 mmHg 33%
    20:00 +21°C° 0 mm 6 mps 691 mmHg 37%
    21:00 +20°C° 0 mm 5 mps 691 mmHg 42%
    22:00 +19°C° 0 mm 4 mps 691 mmHg 47%
    23:00 +18°C° 0 mm 3 mps 691 mmHg 52%

    7 April, Tuesday

    Time Temperature Precipitation Wind Pressure Humidity
    00:00 +17°C° 0 mm 3 mps 691 mmHg 54%
    01:00 +16°C° 0 mm 3 mps 690 mmHg 56%
    02:00 +16°C° 0 mm 3 mps 690 mmHg 57%
    03:00 +14°C° 0 mm 3 mps 690 mmHg 59%
    04:00 +13°C° 0 mm 3 mps 690 mmHg 61%
    05:00 +13°C° 0 mm 3 mps 690 mmHg 62%
    06:00 +13°C° 0 mm 3 mps 690 mmHg 57%
    07:00 +14°C° 0 mm 3 mps 690 mmHg 52%
    08:00 +16°C° 0 mm 3 mps 691 mmHg 47%
    09:00 +18°C° 0 mm 4 mps 691 mmHg 41%
    10:00 +19°C° 0 mm 4 mps 691 mmHg 35%
    11:00 +21°C° 0 mm 4 mps 691 mmHg 29%
    12:00 +22°C° 0 mm 4 mps 691 mmHg 26%
    13:00 +23°C° 0 mm 5 mps 691 mmHg 23%
    14:00 +25°C° 0 mm 5 mps 691 mmHg 20%
    15:00 +24°C° 0 mm 6 mps 690 mmHg 20%
    16:00 +23°C° 0 mm 6 mps 690 mmHg 20%
    17:00 +23°C° 0 mm 6 mps 690 mmHg 20%
    18:00 +21°C° 0 mm 6 mps 690 mmHg 23%
    19:00 +20°C° 0 mm 6 mps 690 mmHg 26%
    20:00 +19°C° 0 mm 6 mps 690 mmHg 29%
    21:00 +17°C° 0 mm 5 mps 690 mmHg 32%
    22:00 +16°C° 0 mm 5 mps 690 mmHg 35%
    23:00 +15°C° 0 mm 4 mps 691 mmHg 38%

    8 April, Wednesday

    Time Temperature Precipitation Wind Pressure Humidity
    00:00 +15°C° 0 mm 4 mps 690 mmHg 44%
    01:00 +14°C° 0 mm 4 mps 690 mmHg 50%
    02:00 +13°C° 0 mm 4 mps 690 mmHg 57%
    03:00 +12°C° 0 mm 3 mps 690 mmHg 59%
    04:00 +12°C° 0 mm 3 mps 690 mmHg 62%
    05:00 +12°C° 0 mm 2 mps 690 mmHg 65%
    06:00 +13°C° 0 mm 2 mps 690 mmHg 61%
    07:00 +13°C° 0 mm 3 mps 690 mmHg 56%
    08:00 +14°C° 0 mm 3 mps 691 mmHg 52%
    09:00 +17°C° 0 mm 3 mps 691 mmHg 46%
    10:00 +18°C° 0 mm 3 mps 691 mmHg 40%
    11:00 +19°C° 0 mm 3 mps 691 mmHg 33%
    12:00 +20°C° 0 mm 3 mps 691 mmHg 30%
    13:00 +22°C° 0 mm 3 mps 690 mmHg 26%
    14:00 +23°C° 0 mm 4 mps 690 mmHg 22%
    15:00 +22°C° 0 mm 4 mps 690 mmHg 23%
    16:00 +22°C° 0 mm 5 mps 689 mmHg 24%
    17:00 +22°C° 0 mm 5 mps 689 mmHg 25%
    18:00 +20°C° 0 mm 5 mps 689 mmHg 30%
    19:00 +19°C° 0 mm 5 mps 690 mmHg 34%
    20:00 +17°C° 0 mm 5 mps 690 mmHg 38%
    21:00 +17°C° 0 mm 4 mps 690 mmHg 41%
    22:00 +17°C° 0 mm 4 mps 690 mmHg 43%
    23:00 +15°C° 0 mm 4 mps 690 mmHg 46%
    Show more